Starlink 11185

operational
NORAD ID: 62588 Int'l Des: 2025-008 Owner: SPXS Country: US Constellation: starlink
LEOCIRCULAR

Über Starlink 11185

Beschreibung wird geladen...

Live-Position

3D-Globus wird geladen...

Nächste Überflüge

Höhenverlauf

Altitude vs Time

uPlot chart will show altitude changes over time

Zweizeiliger Elementsatz

1 62588U 25008B 26033.25308672 .00119074 00000-0 91643-3 0 9999
2 62588 42.9988 339.5282 0002160 250.8447 109.2186 15.70885825 60543
Epoch: 2. Feb. 2026 • Age: 19 hours

Aktueller Status

Höhe 357.7 km
Geschwindigkeit 7.70 km/s
Subsatellitenpunkt -14.21°S, 18.61°E
Startdatum 13. Jan. 2025
Alter 1 years
Typ internet

Technische Details

Klassifizierung Payload
Masse 960.00 kg
Trockenmasse 910.00 kg
Gesamtmasse 960.00 kg
Länge 0.30 m
Durchmesser 4.10 m
Spannweite 29.00 m
Form Box + pan
Hersteller SPXS
Bus-Typ Starlink V2MD
Phasenstatus In Orbit
Besitzer/Staat SPXS/US

Große Konstellationen

Loading constellations...